Location: Nakusp
(50.2330°N, 117.8000°W)
Time: 19:44:30
(UTC-07:00)

Cosmos 1939 Rocket - Visible Passes

Search period start: 24 April 2017 00:00
Search period end: 04 May 2017 00:00
Orbit: 533 x 586 km, 97.5° (Epoch: 23 April)

Date Brightness Start Highest point End Pass type
(mag) Time Alt. Az. Time Alt. Az. Time Alt. Az.
24 Apr 4.0 21:21:51 10° S 21:25:44 44° W 21:29:35 10° NNW visible
25 Apr 3.9 21:20:39 10° S 21:24:32 45° W 21:28:24 10° NNW visible
26 Apr 3.8 21:19:28 10° S 21:23:21 46° W 21:27:12 10° NNW visible
27 Apr 3.8 21:18:16 10° S 21:22:10 47° W 21:26:02 10° NNW visible
28 Apr 3.7 21:17:04 10° S 21:20:58 48° W 21:24:51 10° NNW visible
29 Apr 3.7 21:15:53 10° S 21:19:47 50° W 21:23:39 10° NNW visible
30 Apr 3.6 21:14:41 10° S 21:18:35 51° W 21:22:28 10° NNW visible
01 May 3.6 21:13:30 10° S 21:17:24 52° W 21:21:17 10° NNW visible
02 May 3.5 21:12:18 10° S 21:16:13 54° W 21:20:05 10° NNW visible
03 May 3.5 21:11:07 10° S 21:15:01 55° W 21:18:54 10° NNW visible
